Location: Grand Rapids
(42.9630°N, 85.6680°W)
Time: 01:59:38
(UTC-04:00)

S-56A Canister/Altair - Pass Details

Date: 06 June 2024
Orbit: 637 x 2489 km, 38.9° (Epoch: 21 June)

Event Time Altitude Azimuth Distance (km) Brightness Sun altitude
Rises 00:31:11 0° 186° (S) 5,406 - -22.4°
Reaches altitude 10° 00:35:53 10° 171° (S) 4,678 - -22.6°
Exits shadow 00:44:34 20° 130° (SE) 4,203 10.8 -23.0°
Maximum altitude 00:44:39 20° 130° (SE) 4,205 10.8 -23.0°
Drops below altitude 10° 00:54:07 10° 90° (E) 5,150 11.6 -23.4°
Sets 00:59:35 0° 76° (ENE) 6,110 12.2 -23.6°
